Location: ?????????
(41.2286°N, 23.0068°E)
Time: 08:46:22
(UTC+00:00)

USA 234 - Pass Details

Date: 08 November 2025
Orbit: 1100 x 1107 km, 123.0° (Epoch: 02 December)

Event Time Altitude Azimuth Distance (km) Brightness Sun altitude
Rises 03:44:57 0° 151° (SSE) 3,913 6.7 -15.8°
Reaches altitude 10° 03:47:33 10° 157° (SSE) 2,958 5.9 -15.3°
Maximum altitude 03:53:47 46° 230° (SW) 1,439 3.6 -14.2°
Enters shadow 03:58:53 16° 298° (WNW) 2,561 4.6 -13.2°
